Time,TemperatureF,DewpointF,PressureIn,WindDirection,WindDirectionDegrees,WindSpeedMPH,WindSpeedGustMPH,Humidity,HourlyPrecipIn,Conditions,Clouds,dailyrainin,SoftwareType,DateUTC
2013-06-30 00:02:00,67.0,-99.9,-100.00,North,-999,-999.0,-999.0,-999,0.00,,,0.44,,2013-06-30 04:02:00,
2013-06-30 00:12:00,67.0,-99.9,-100.00,North,-999,-999.0,-999.0,-999,0.00,,,0.44,,2013-06-30 04:12:00,
2013-06-30 00:22:00,67.0,-99.9,-100.00,North,-999,-999.0,-999.0,-999,0.00,,,0.44,,2013-06-30 04:22:00,
2013-06-30 00:30:00,67.0,-99.9,-100.00,North,-999,-999.0,-999.0,-999,0.00,,,0.44,,2013-06-30 04:30:00,
2013-06-30 01:02:00,67.0,-99.9,-100.00,North,-999,-999.0,-999.0,-999,0.00,,,0.44,,2013-06-30 05:02:00,
2013-06-30 01:12:00,67.0,-99.9,-100.00,North,-999,-999.0,-999.0,-999,0.00,,,0.44,,2013-06-30 05:12:00,
2013-06-30 01:22:00,67.0,-99.9,-100.00,North,-999,-999.0,-999.0,-999,0.00,,,0.44,,2013-06-30 05:22:00,
2013-06-30 01:30:00,66.0,-99.9,-100.00,North,-999,-999.0,-999.0,-999,0.00,,,0.44,,2013-06-30 05:30:00,
2013-06-30 02:02:00,66.0,-99.9,-100.00,North,-999,-999.0,-999.0,-999,0.00,,,0.44,,2013-06-30 06:02:00,
2013-06-30 02:12:00,66.0,-99.9,-100.00,North,-999,-999.0,-999.0,-999,0.00,,,0.44,,2013-06-30 06:12:00,
2013-06-30 02:23:00,66.0,-99.9,-100.00,North,-999,-999.0,-999.0,-999,0.00,,,0.44,,2013-06-30 06:23:00,
2013-06-30 02:30:00,66.0,-99.9,-100.00,North,-999,-999.0,-999.0,-999,0.00,,,0.44,,2013-06-30 06:30:00,
2013-06-30 03:03:00,66.0,-99.9,-100.00,North,-999,-999.0,-999.0,-999,0.00,,,0.44,,2013-06-30 07:03:00,
2013-06-30 03:12:00,66.0,-99.9,-100.00,North,-999,-999.0,-999.0,-999,0.00,,,0.44,,2013-06-30 07:12:00,
2013-06-30 03:22:00,66.0,-99.9,-100.00,North,-999,-999.0,-999.0,-999,0.00,,,0.44,,2013-06-30 07:22:00,
2013-06-30 03:30:00,65.0,-99.9,-100.00,North,-999,-999.0,-999.0,-999,0.00,,,0.43,,2013-06-30 07:30:00,
2013-06-30 04:02:00,65.0,-99.9,-100.00,North,-999,-999.0,-999.0,-999,0.00,,,0.43,,2013-06-30 08:02:00,
2013-06-30 04:12:00,65.0,-99.9,-100.00,North,-999,-999.0,-999.0,-999,0.00,,,0.43,,2013-06-30 08:12:00,
2013-06-30 04:23:00,65.0,-99.9,-100.00,North,-999,-999.0,-999.0,-999,0.00,,,0.43,,2013-06-30 08:23:00,
2013-06-30 04:30:00,64.0,-99.9,-100.00,North,-999,-999.0,-999.0,-999,0.00,,,0.43,,2013-06-30 08:30:00,
2013-06-30 05:02:00,64.0,-99.9,-100.00,North,-999,-999.0,-999.0,-999,0.00,,,0.43,,2013-06-30 09:02:00,
2013-06-30 05:12:00,64.0,-99.9,-100.00,North,-999,-999.0,-999.0,-999,0.00,,,0.43,,2013-06-30 09:12:00,
2013-06-30 05:23:00,64.0,-99.9,-100.00,North,-999,-999.0,-999.0,-999,0.00,,,0.43,,2013-06-30 09:23:00,
2013-06-30 05:30:00,62.0,-99.9,-100.00,North,-999,-999.0,-999.0,-999,0.00,,,0.43,,2013-06-30 09:30:00,
2013-06-30 06:02:00,62.0,-99.9,-100.00,North,-999,-999.0,-999.0,-999,0.00,,,0.43,,2013-06-30 10:02:00,
2013-06-30 06:12:00,62.0,-99.9,-100.00,North,-999,-999.0,-999.0,-999,0.00,,,0.43,,2013-06-30 10:12:00,
2013-06-30 06:23:00,62.0,-99.9,-100.00,North,-999,-999.0,-999.0,-999,0.00,,,0.43,,2013-06-30 10:23:00,
2013-06-30 06:30:00,63.0,-99.9,-100.00,North,-999,-999.0,-999.0,-999,0.00,,,0.43,,2013-06-30 10:30:00,
2013-06-30 07:02:00,63.0,-99.9,-100.00,North,-999,-999.0,-999.0,-999,0.00,,,0.43,,2013-06-30 11:02:00,
2013-06-30 07:11:00,63.0,-99.9,-100.00,North,-999,-999.0,-999.0,-999,0.00,,,0.43,,2013-06-30 11:11:00,
2013-06-30 07:22:00,63.0,-99.9,-100.00,North,-999,-999.0,-999.0,-999,0.00,,,0.43,,2013-06-30 11:22:00,
2013-06-30 07:30:00,67.0,-99.9,-100.00,North,-999,-999.0,-999.0,-999,0.00,,,0.43,,2013-06-30 11:30:00,
2013-06-30 08:02:00,67.0,-99.9,-100.00,North,-999,-999.0,-999.0,-999,0.00,,,0.43,,2013-06-30 12:02:00,
2013-06-30 08:12:00,67.0,-99.9,-100.00,North,-999,-999.0,-999.0,-999,0.00,,,0.43,,2013-06-30 12:12:00,
2013-06-30 08:24:00,67.0,-99.9,-100.00,North,-999,-999.0,-999.0,-999,0.00,,,0.43,,2013-06-30 12:24:00,
2013-06-30 08:30:00,70.0,-99.9,-100.00,North,-999,-999.0,-999.0,-999,0.00,,,0.43,,2013-06-30 12:30:00,
2013-06-30 09:02:00,70.0,-99.9,-100.00,North,-999,-999.0,-999.0,-999,0.00,,,0.43,,2013-06-30 13:02:00,
2013-06-30 09:12:00,70.0,-99.9,-100.00,North,-999,-999.0,-999.0,-999,0.00,,,0.43,,2013-06-30 13:12:00,
2013-06-30 09:22:00,70.0,-99.9,-100.00,North,-999,-999.0,-999.0,-999,0.00,,,0.43,,2013-06-30 13:22:00,
2013-06-30 09:30:00,71.0,-99.9,-100.00,North,-999,-999.0,-999.0,-999,0.00,,,-99.99,,2013-06-30 13:30:00,
2013-06-30 10:02:00,71.0,-99.9,-100.00,North,-999,-999.0,-999.0,-999,0.00,,,-99.99,,2013-06-30 14:02:00,
2013-06-30 10:12:00,71.0,-99.9,-100.00,North,-999,-999.0,-999.0,-999,0.00,,,-99.99,,2013-06-30 14:12:00,
2013-06-30 10:23:00,71.0,-99.9,-100.00,North,-999,-999.0,-999.0,-999,0.00,,,-99.99,,2013-06-30 14:23:00,
2013-06-30 10:30:00,74.0,-99.9,-100.00,North,-999,-999.0,-999.0,-999,0.00,,,0.43,,2013-06-30 14:30:00,
2013-06-30 11:02:00,74.0,-99.9,-100.00,North,-999,-999.0,-999.0,-999,0.00,,,0.43,,2013-06-30 15:02:00,
2013-06-30 11:12:00,74.0,-99.9,-100.00,North,-999,-999.0,-999.0,-999,0.00,,,0.43,,2013-06-30 15:12:00,
2013-06-30 11:23:00,74.0,-99.9,-100.00,North,-999,-999.0,-999.0,-999,0.00,,,0.43,,2013-06-30 15:23:00,
2013-06-30 11:30:00,79.0,-99.9,-100.00,North,-999,-999.0,-999.0,-999,0.00,,,0.43,,2013-06-30 15:30:00,
2013-06-30 12:30:00,81.0,-99.9,-100.00,North,-999,-999.0,-999.0,-999,0.00,,,0.43,,2013-06-30 16:30:00,
2013-06-30 13:02:00,81.0,-99.9,-100.00,North,-999,-999.0,-999.0,-999,0.00,,,0.43,,2013-06-30 17:02:00,
2013-06-30 13:12:00,81.0,-99.9,-100.00,North,-999,-999.0,-999.0,-999,0.00,,,0.43,,2013-06-30 17:12:00,
2013-06-30 13:24:00,81.0,-99.9,-100.00,North,-999,-999.0,-999.0,-999,0.00,,,0.43,,2013-06-30 17:24:00,
2013-06-30 13:30:00,83.0,-99.9,-100.00,North,-999,-999.0,-999.0,-999,0.00,,,0.43,,2013-06-30 17:30:00,
2013-06-30 14:02:00,83.0,-99.9,-100.00,North,-999,-999.0,-999.0,-999,0.00,,,0.43,,2013-06-30 18:02:00,
2013-06-30 14:12:00,83.0,-99.9,-100.00,North,-999,-999.0,-999.0,-999,0.00,,,0.43,,2013-06-30 18:12:00,
2013-06-30 14:22:00,83.0,-99.9,-100.00,North,-999,-999.0,-999.0,-999,0.00,,,0.43,,2013-06-30 18:22:00,
2013-06-30 14:30:00,84.0,-99.9,-100.00,North,-999,-999.0,-999.0,-999,0.00,,,0.43,,2013-06-30 18:30:00,
2013-06-30 15:02:00,84.0,-99.9,-100.00,North,-999,-999.0,-999.0,-999,0.00,,,0.43,,2013-06-30 19:02:00,
2013-06-30 15:12:00,84.0,-99.9,-100.00,North,-999,-999.0,-999.0,-999,0.00,,,0.43,,2013-06-30 19:12:00,
2013-06-30 15:22:00,84.0,-99.9,-100.00,North,-999,-999.0,-999.0,-999,0.00,,,0.43,,2013-06-30 19:22:00,
2013-06-30 15:30:00,84.0,-99.9,-100.00,North,-999,-999.0,-999.0,-999,0.00,,,0.43,,2013-06-30 19:30:00,
2013-06-30 16:02:00,84.0,-99.9,-100.00,North,-999,-999.0,-999.0,-999,0.00,,,0.43,,2013-06-30 20:02:00,
2013-06-30 16:12:00,84.0,-99.9,-100.00,North,-999,-999.0,-999.0,-999,0.00,,,0.43,,2013-06-30 20:12:00,
2013-06-30 16:22:00,84.0,-99.9,-100.00,North,-999,-999.0,-999.0,-999,0.00,,,0.43,,2013-06-30 20:22:00,
2013-06-30 16:30:00,86.0,-99.9,-100.00,North,-999,-999.0,-999.0,-999,0.00,,,0.42,,2013-06-30 20:30:00,
2013-06-30 17:02:00,86.0,-99.9,-100.00,North,-999,-999.0,-999.0,-999,0.00,,,0.42,,2013-06-30 21:02:00,
2013-06-30 17:11:00,86.0,-99.9,-100.00,North,-999,-999.0,-999.0,-999,0.00,,,0.42,,2013-06-30 21:11:00,
2013-06-30 17:22:00,86.0,-99.9,-100.00,North,-999,-999.0,-999.0,-999,0.00,,,0.42,,2013-06-30 21:22:00,
2013-06-30 17:30:00,84.0,-99.9,-100.00,North,-999,-999.0,-999.0,-999,0.00,,,0.15,,2013-06-30 21:30:00,
2013-06-30 18:11:00,84.0,-99.9,-100.00,North,-999,-999.0,-999.0,-999,0.00,,,0.15,,2013-06-30 22:11:00,
2013-06-30 18:22:00,84.0,-99.9,-100.00,North,-999,-999.0,-999.0,-999,0.00,,,0.15,,2013-06-30 22:22:00,
2013-06-30 18:30:00,83.0,-99.9,-100.00,North,-999,-999.0,-999.0,-999,0.00,,,0.14,,2013-06-30 22:30:00,
2013-06-30 19:02:00,83.0,-99.9,-100.00,North,-999,-999.0,-999.0,-999,0.00,,,0.14,,2013-06-30 23:02:00,
2013-06-30 19:11:00,83.0,-99.9,-100.00,North,-999,-999.0,-999.0,-999,0.00,,,0.14,,2013-06-30 23:11:00,
2013-06-30 19:22:00,83.0,-99.9,-100.00,North,-999,-999.0,-999.0,-999,0.00,,,0.14,,2013-06-30 23:22:00,
2013-06-30 19:30:00,80.0,-99.9,-100.00,North,-999,-999.0,-999.0,-999,0.00,,,0.00,,2013-06-30 23:30:00,
2013-06-30 20:02:00,80.0,-99.9,-100.00,North,-999,-999.0,-999.0,-999,0.00,,,0.00,,2013-07-01 00:02:00,
2013-06-30 20:12:00,80.0,-99.9,-100.00,North,-999,-999.0,-999.0,-999,0.00,,,0.00,,2013-07-01 00:12:00,
2013-06-30 20:30:00,74.0,-99.9,-100.00,North,-999,-999.0,-999.0,-999,-99.99,,,0.00,,2013-07-01 00:30:00,
2013-06-30 21:02:00,74.0,-99.9,-100.00,North,-999,-999.0,-999.0,-999,-99.99,,,0.00,,2013-07-01 01:02:00,
2013-06-30 21:12:00,74.0,-99.9,-100.00,North,-999,-999.0,-999.0,-999,-99.99,,,0.00,,2013-07-01 01:12:00,
2013-06-30 21:22:00,74.0,-99.9,-100.00,North,-999,-999.0,-999.0,-999,-99.99,,,0.00,,2013-07-01 01:22:00,
2013-06-30 21:30:00,71.0,-99.9,-100.00,North,-999,-999.0,-999.0,-999,0.03,,,0.03,,2013-07-01 01:30:00,
2013-06-30 22:02:00,71.0,-99.9,-100.00,North,-999,-999.0,-999.0,-999,0.03,,,0.03,,2013-07-01 02:02:00,
2013-06-30 22:12:00,71.0,-99.9,-100.00,North,-999,-999.0,-999.0,-999,0.03,,,0.03,,2013-07-01 02:12:00,
2013-06-30 22:22:00,71.0,-99.9,-100.00,North,-999,-999.0,-999.0,-999,0.03,,,0.03,,2013-07-01 02:22:00,
2013-06-30 22:30:00,70.0,-99.9,-100.00,North,-999,-999.0,-999.0,-999,0.01,,,0.04,,2013-07-01 02:30:00,
2013-06-30 23:02:00,70.0,-99.9,-100.00,North,-999,-999.0,-999.0,-999,0.01,,,0.04,,2013-07-01 03:02:00,
2013-06-30 23:12:00,70.0,-99.9,-100.00,North,-999,-999.0,-999.0,-999,0.01,,,0.04,,2013-07-01 03:12:00,
2013-06-30 23:23:00,70.0,-99.9,-100.00,North,-999,-999.0,-999.0,-999,0.01,,,0.04,,2013-07-01 03:23:00,
2013-06-30 23:30:00,70.0,-99.9,-100.00,North,-999,-999.0,-999.0,-999,0.00,,,0.04,,2013-07-01 03:30:00,